Date_and_time,latitude,longitude,wind_speed,RelWindDirFrom,WindDirFrom,air_pressure,air_temperature,relative_humidity,Temp,platform_speed_wrt_ground,air_pressure_at_mean_sea_level,platform_orientation
2019-04-12 00:00,50.6304383333333,-96.9807666666667,10.4,13.2,11,991.05,0.8,91,2.52,0.0,1018.86,90.0
2019-04-12 00:10,50.6304366666667,-96.980765,11.8,13.7,17,991.02,0.9,89,2.53,0.0,1018.82,90.0
2019-04-12 00:20,50.6304366666667,-96.9807666666667,12.3,16.5,26,990.98,1.5,82,2.54,0.0,1018.76,90.0
2019-04-12 00:30,50.6304116666667,-96.9807666666667,10.6,12.2,11,990.99,0.7,93,2.55,0.0,1018.81,90.0
2019-04-12 00:40,50.630435,-96.98078,12.7,14.7,17,990.86,0.9,88,2.55,0.0,1018.68,90.0
2019-04-12 00:50,50.6304283333333,-96.9807766666667,13.8,19.0,25,990.75,1.2,82,2.54,0.0,1018.55,90.0
2019-04-12 01:00,50.6304233333333,-96.9807733333333,13.6,17.4,28,990.66,1.5,78,2.55,0.0,1018.46,219.5
2019-04-12 01:10,50.6304266666667,-96.98077,12.1,14.2,31,990.69,1.2,81,2.55,0.0,1018.51,219.5
2019-04-12 01:20,50.6304016666667,-96.980775,9.5,12.5,22,990.75,0.8,88,2.55,0.0,1018.59,219.5
2019-04-12 01:30,50.63043,-96.9807783333333,9.7,11.1,21,990.77,0.4,91,2.55,0.0,1018.63,219.5
2019-04-12 01:40,50.6304416666667,-96.9807883333333,10.6,11.7,23,990.75,0.6,88,2.56,0.0,1018.62,219.5
2019-04-12 01:50,50.6304366666667,-96.98079,10.4,11.8,22,990.75,0.5,88,2.57,0.0,1018.63,219.5
2019-04-12 02:00,50.6304333333333,-96.9807866666667,11.4,13.2,30,990.67,0.8,82,2.58,0.0,1018.53,240.8
2019-04-12 02:10,50.6304366666667,-96.9807866666667,11.0,12.6,24,990.58,0.9,81,2.57,0.0,1018.40,240.8
2019-04-12 02:20,50.6304383333333,-96.980785,10.1,12.0,14,990.49,0.3,91,2.58,0.0,1018.38,240.8
2019-04-12 02:30,50.6304383333333,-96.980785,9.8,10.9,12,990.40,0.1,94,2.58,0.0,1018.28,240.8
2019-04-12 02:40,50.6304283333333,-96.9807716666667,9.9,11.4,17,990.32,-0.1,96,2.58,0.0,1018.19,240.8
2019-04-12 02:50,50.630435,-96.980775,10.2,11.6,20,990.29,0.0,95,2.58,0.0,1018.14,240.8
2019-04-12 03:00,50.6304366666667,-96.980775,9.5,10.9,26,990.34,0.1,94,2.58,0.0,1018.21,192.6
2019-04-12 03:10,50.630455,-96.9807733333333,10.3,11.9,33,990.28,0.3,89,2.58,0.0,1018.16,192.6
2019-04-12 03:20,50.630415,-96.9807766666667,11.8,13.6,31,990.16,0.5,85,2.58,0.0,1018.03,192.6
2019-04-12 03:30,50.630425,-96.980765,12.6,13.7,26,990.04,0.6,84,2.58,0.0,1017.91,192.6
2019-04-12 03:40,50.63043,-96.9807633333333,12.5,14.0,20,989.92,0.5,86,2.58,0.0,1017.79,192.6
2019-04-12 03:50,50.6304316666667,-96.980765,12.9,14.7,21,989.74,0.5,84,2.57,0.0,1017.59,192.6
2019-04-12 04:00,50.6304333333333,-96.98077,13.8,16.6,20,989.57,0.4,84,2.57,0.0,1017.41,48.3
2019-04-12 04:10,50.6304316666667,-96.9807716666667,14.4,17.6,24,989.41,0.7,79,2.57,0.0,1017.27,48.3
2019-04-12 04:20,50.630425,-96.980775,13.3,15.5,25,989.28,0.7,79,2.57,0.0,1017.14,48.3
2019-04-12 04:30,50.6304233333333,-96.980785,11.8,13.3,21,989.18,0.4,84,2.56,0.0,1017.07,48.3
2019-04-12 04:40,50.6304333333333,-96.98078,11.9,13.3,17,989.02,0.1,86,2.56,0.0,1016.91,48.3
2019-04-12 04:50,50.6304366666667,-96.980775,12.6,14.4,18,988.87,0.2,83,2.56,0.0,1016.75,48.3
2019-04-12 05:00,50.6304366666667,-96.980775,12.9,14.5,22,988.70,0.4,80,2.56,0.0,1016.56,68.5
2019-04-12 05:10,50.6304366666667,-96.9807766666667,13.6,15.5,23,988.53,0.4,79,2.57,0.0,1016.36,68.5
2019-04-12 05:20,50.6304366666667,-96.9807783333333,12.9,14.8,16,988.43,0.1,84,2.58,0.0,1016.28,68.5
2019-04-12 05:30,50.6304383333333,-96.9807783333333,12.9,14.6,12,988.27,-0.1,85,2.58,0.0,1016.12,68.5
2019-04-12 05:40,50.6304383333333,-96.9807766666667,13.2,15.5,17,988.11,-0.1,84,2.59,0.0,1015.96,68.5
2019-04-12 05:50,50.6304516666667,-96.98079,13.9,15.4,22,987.91,0.1,80,2.61,0.0,1015.75,68.5
2019-04-12 06:00,50.630435,-96.9807783333333,12.9,15.8,13,987.82,-0.1,85,2.62,0.0,1015.65,270.0
2019-04-12 06:10,50.630465,-96.9807983333333,12.9,14.4,14,987.69,-0.3,87,2.62,0.0,1015.53,270.0
2019-04-12 06:20,50.6304416666667,-96.9807716666667,13.5,16.0,17,987.54,-0.3,85,2.62,0.0,1015.39,270.0
2019-04-12 06:30,50.6304433333333,-96.98077,13.9,16.1,19,987.36,-0.3,84,2.62,0.0,1015.22,270.0
2019-04-12 06:40,50.6304416666667,-96.9807716666667,13.2,14.7,12,987.26,-0.4,87,2.62,0.0,1015.12,270.0
2019-04-12 06:50,50.63044,-96.98077,13.3,15.9,12,987.13,-0.4,86,2.62,0.0,1014.98,270.0
2019-04-12 07:00,50.6304366666667,-96.98077,13.5,15.3,17,987.02,-0.4,85,2.62,0.0,1014.85,38.0
2019-04-12 07:10,50.6304283333333,-96.98076,14.0,16.2,19,986.89,-0.3,83,2.61,0.0,1014.73,38.0
2019-04-12 07:20,50.6304366666667,-96.98076,13.9,15.7,19,986.84,-0.3,84,2.61,0.0,1014.70,38.0
2019-04-12 07:30,50.6304366666667,-96.9807733333333,14.0,15.9,21,986.76,-0.3,84,2.61,0.0,1014.61,38.0
2019-04-12 07:40,50.630435,-96.98077,13.9,15.7,23,986.61,-0.3,83,2.60,0.0,1014.44,38.0
2019-04-12 07:50,50.63043,-96.9807683333333,14.4,16.0,20,986.32,-0.3,83,2.60,0.0,1014.16,38.0
2019-04-12 08:00,50.6304316666667,-96.9807683333333,14.4,16.5,17,985.99,-0.4,83,2.60,0.0,1013.84,131.7
2019-04-12 08:10,50.63043,-96.98077,14.8,16.8,15,985.85,-0.4,83,2.59,0.0,1013.69,131.7
2019-04-12 08:20,50.63043,-96.98077,14.9,17.1,14,985.73,-0.5,84,2.59,0.0,1013.57,131.7
2019-04-12 08:30,50.6304316666667,-96.98077,14.6,16.8,13,985.74,-0.6,85,2.58,0.0,1013.59,131.7
2019-04-12 08:40,50.6304333333333,-96.98077,14.4,16.6,12,985.74,-0.7,85,2.58,0.0,1013.60,131.7
2019-04-12 08:50,50.63045,-96.9807683333333,14.7,16.9,12,985.75,-0.7,85,2.58,0.0,1013.61,131.7
2019-04-12 09:00,50.630445,-96.9807666666667,14.6,17.3,14,985.74,-0.8,85,2.58,0.0,1013.60,68.5
2019-04-12 09:10,50.6304416666667,-96.9807683333333,15.3,17.4,14,985.63,-0.8,85,2.58,0.0,1013.49,68.5
2019-04-12 09:20,50.6304416666667,-96.9807666666667,14.8,16.8,14,985.56,-1.0,85,2.57,0.0,1013.43,68.5
2019-04-12 09:30,50.63044,-96.98077,14.7,16.7,12,985.42,-1.1,86,2.56,0.0,1013.29,68.5
2019-04-12 09:40,50.63044,-96.9807683333333,15.2,17.7,11,985.39,-1.1,86,2.56,0.0,1013.26,68.5
2019-04-12 09:50,50.63044,-96.9807666666667,15.3,17.4,11,985.31,-1.2,86,2.56,0.0,1013.18,68.5
2019-04-12 10:00,50.63044,-96.9807683333333,16.5,19.5,7,985.02,-1.2,85,2.55,0.0,1012.88,360.0
2019-04-12 10:10,50.6304366666667,-96.9807633333333,16.5,18.7,7,984.85,-1.2,83,2.55,0.0,1012.72,360.0
2019-04-12 10:20,50.6304366666667,-96.9807566666667,15.4,18.3,12,985.02,-1.2,84,2.54,0.0,1012.90,360.0
2019-04-12 10:30,50.6304383333333,-96.9807666666667,14.9,17.4,10,984.87,-1.3,85,2.53,0.0,1012.76,360.0
2019-04-12 10:40,50.6304383333333,-96.9807666666667,15.7,19.0,5,984.54,-1.3,83,2.52,0.0,1012.41,360.0
2019-04-12 10:50,50.63044,-96.9807666666667,15.3,18.5,5,984.43,-1.2,81,2.52,0.0,1012.30,360.0
2019-04-12 11:00,50.63044,-96.9807666666667,15.7,19.2,8,984.40,-1.2,80,2.51,0.0,1012.28,360.0
2019-04-12 11:10,50.6304483333333,-96.98076,14.9,17.7,14,984.54,-1.4,85,2.51,0.0,1012.43,360.0
2019-04-12 11:20,50.6304333333333,-96.980775,14.5,17.1,13,984.50,-1.4,85,2.50,0.0,1012.39,360.0
2019-04-12 11:30,50.630435,-96.9807733333333,15.4,17.9,10,984.37,-1.4,84,2.48,0.0,1012.26,360.0
2019-04-12 11:40,50.6304366666667,-96.9807683333333,16.3,19.9,11,984.37,-1.4,84,2.47,0.0,1012.27,360.0
2019-04-12 11:50,50.630435,-96.9807683333333,16.4,18.9,57,984.33,-1.5,84,2.46,0.0,1012.23,360.0
2019-04-12 12:00,50.630435,-96.9807666666667,16.7,19.3,9,984.31,-1.5,83,2.46,0.0,1012.21,142.0
2019-04-12 12:10,50.630435,-96.980765,17.3,20.0,7,984.13,-1.5,82,2.45,0.0,1012.03,142.0
2019-04-12 12:20,50.630435,-96.9807633333333,18.4,20.9,9,984.02,-1.5,80,2.44,0.0,1011.92,142.0
2019-04-12 12:30,50.630435,-96.9807633333333,18.3,21.8,9,983.97,-1.6,79,2.43,0.0,1011.87,142.0
2019-04-12 12:40,50.6304366666667,-96.9807633333333,18.7,21.3,9,983.80,-1.6,79,2.43,0.0,1011.69,142.0
2019-04-12 12:50,50.63044,-96.9807916666667,18.3,21.4,8,983.63,-1.6,79,2.43,0.0,1011.52,142.0
2019-04-12 13:00,50.6304383333333,-96.980775,18.4,21.7,7,983.58,-1.6,79,2.43,0.0,1011.47,270.0
2019-04-12 13:10,50.6304366666667,-96.9807716666667,18.6,23.9,9,983.55,-1.7,80,2.44,0.0,1011.45,270.0
2019-04-12 13:20,50.6304333333333,-96.9807766666667,17.9,23.0,14,983.50,-1.6,78,2.45,0.0,1011.40,270.0
2019-04-12 13:30,50.6304366666667,-96.98078,16.4,19.7,9,983.45,-1.7,81,2.44,0.0,1011.35,270.0
2019-04-12 13:40,50.6304366666667,-96.9807783333333,17.3,21.4,7,983.27,-1.8,80,2.44,0.0,1011.17,270.0
2019-04-12 13:50,50.6304383333333,-96.9807783333333,17.6,20.6,6,983.20,-1.8,79,2.45,0.0,1011.10,270.0
2019-04-12 14:00,50.63044,-96.9807783333333,17.5,20.5,5,983.13,-1.7,78,2.46,0.0,1011.03,270.0
2019-04-12 14:10,50.63044,-96.98078,17.8,21.3,5,983.10,-1.6,76,2.45,0.0,1010.99,270.0
2019-04-12 14:20,50.6304383333333,-96.9807716666667,19.4,23.6,7,982.95,-1.5,76,2.45,0.0,1010.83,270.0
2019-04-12 14:30,50.6304416666667,-96.9807733333333,20.4,24.4,10,982.82,-1.4,77,2.46,0.0,1010.69,270.0
2019-04-12 14:40,50.6304433333333,-96.980775,21.3,25.9,14,982.68,-1.4,77,2.47,0.0,1010.55,270.0
2019-04-12 14:50,50.6304433333333,-96.9807733333333,20.4,24.3,12,982.65,-1.4,76,2.47,0.0,1010.52,270.0
2019-04-12 15:00,50.6304433333333,-96.9807733333333,20.9,24.9,13,982.63,-1.3,77,2.47,0.0,1010.50,311.7
2019-04-12 15:10,50.630445,-96.9807733333333,21.1,25.5,15,982.60,-1.4,79,2.47,0.0,1010.47,311.7
2019-04-12 15:20,50.630445,-96.9807733333333,22.5,28.0,17,982.49,-1.4,80,2.47,0.0,1010.36,311.7
2019-04-12 15:30,50.6304483333333,-96.9807716666667,22.6,26.6,17,982.43,-1.5,86,2.45,0.0,1010.31,311.7
2019-04-12 15:40,50.6304466666667,-96.9807683333333,21.4,25.5,13,982.44,-1.4,88,2.44,0.0,1010.31,311.7
2019-04-12 15:50,50.6304466666667,-96.9807683333333,21.4,26.1,14,982.44,-0.9,86,2.43,0.0,1010.28,311.7
2019-04-12 16:00,50.6304333333333,-96.9807483333333,22.6,26.9,17,982.37,-0.8,90,2.42,0.0,1010.20,130.6
2019-04-12 16:10,50.6304333333333,-96.98076,21.7,27.5,21,982.30,-0.8,98,2.41,0.0,1010.12,130.6
2019-04-12 16:20,50.6304466666667,-96.9807583333333,23.2,28.9,18,982.11,-0.7,99,2.40,0.0,1009.92,130.6
2019-04-12 16:30,50.6304483333333,-96.9807583333333,24.3,28.3,19,981.93,-0.7,99,2.40,0.0,1009.74,130.6
2019-04-12 16:40,50.6304466666667,-96.9807583333333,22.7,27.3,11,982.05,-0.8,100,2.40,0.0,1009.86,130.6
2019-04-12 16:50,50.6304466666667,-96.98076,25.7,31.6,15,981.78,-0.8,100,2.41,0.0,1009.58,130.6
2019-04-12 17:00,50.6304466666667,-96.98076,23.2,28.6,13,981.89,-0.6,100,2.42,0.0,1009.69,73.2
2019-04-12 17:10,50.6304466666667,-96.98076,23.5,27.3,12,981.77,-0.6,100,2.43,0.0,1009.56,73.2
2019-04-12 17:20,50.6304466666667,-96.98076,23.1,28.7,6,981.74,-0.9,100,2.43,0.0,1009.55,73.2
2019-04-12 17:30,50.6304466666667,-96.9807616666667,23.2,28.3,5,981.63,-0.8,100,2.44,0.0,1009.43,73.2
2019-04-12 17:40,50.6304566666667,-96.980795,24.3,29.3,5,981.48,-0.8,100,2.44,0.0,1009.25,73.2
2019-04-12 17:50,50.6304566666667,-96.980795,25.1,29.8,6,981.25,-0.6,100,2.45,0.0,1009.00,73.2
2019-04-12 18:00,50.63045,-96.9807816666667,25.4,31.1,6,981.03,-0.4,100,2.46,0.0,1008.76,347.4
2019-04-12 18:10,50.6304466666667,-96.9807766666667,26.6,32.5,7,980.78,-0.3,99,2.47,0.0,1008.49,347.4
2019-04-12 18:20,50.6304466666667,-96.9807766666667,26.6,31.1,9,980.70,-0.1,99,2.47,0.0,1008.40,347.4
2019-04-12 18:30,50.6304466666667,-96.9807766666667,26.1,30.0,57,980.74,0.0,99,2.47,0.0,1008.44,347.4
2019-04-12 18:40,50.6304416666667,-96.9807733333333,25.7,31.3,10,980.71,-0.1,99,2.47,0.0,1008.41,347.4
2019-04-12 18:50,50.6304416666667,-96.98077,25.3,29.4,9,980.67,0.1,98,2.47,0.0,1008.35,347.4
2019-04-12 19:00,50.6304416666667,-96.9807683333333,23.4,28.9,14,980.72,0.2,96,2.47,0.0,1008.40,311.7
2019-04-12 19:10,50.6304433333333,-96.98077,23.9,29.4,14,980.64,0.4,97,2.47,0.0,1008.33,311.7
2019-04-12 19:20,50.6304433333333,-96.98077,20.8,26.1,8,980.77,0.5,98,2.48,0.0,1008.45,311.7
2019-04-12 19:30,50.630445,-96.9807683333333,21.5,25.1,7,980.59,0.7,95,2.48,0.0,1008.26,311.7
2019-04-12 19:40,50.630445,-96.98077,22.2,26.0,12,980.41,0.9,95,2.48,0.0,1008.04,311.7
2019-04-12 19:50,50.630445,-96.98077,23.6,27.4,13,980.25,1.1,92,2.49,0.0,1007.86,311.7
2019-04-12 20:00,50.630425,-96.9807716666667,22.8,26.9,11,980.27,1.1,91,2.49,0.0,1007.87,212.1
2019-04-12 20:10,50.6304383333333,-96.98077,21.8,25.3,9,980.28,1.3,90,2.49,0.0,1007.87,212.1
2019-04-12 20:20,50.6304466666667,-96.98077,21.4,24.7,12,980.33,1.2,86,2.50,0.0,1007.92,212.1
2019-04-12 20:30,50.6304533333333,-96.9807733333333,20.4,23.2,13,980.43,1.2,83,2.50,0.0,1008.02,212.1
2019-04-12 20:40,50.6304483333333,-96.980765,18.2,22.4,10,980.57,1.4,82,2.51,0.0,1008.15,212.1
2019-04-12 20:50,50.6304266666667,-96.9807733333333,18.0,22.5,5,980.62,1.4,80,2.51,0.0,1008.19,212.1
2019-04-12 21:00,50.630445,-96.9807683333333,17.0,21.2,4,980.66,1.7,76,2.50,0.0,1008.21,137.2
2019-04-12 21:10,50.6304433333333,-96.980765,17.0,21.2,5,980.64,1.7,75,2.51,0.0,1008.19,137.2
2019-04-12 21:20,50.6304433333333,-96.9807633333333,18.0,20.9,5,980.59,1.7,72,2.51,0.0,1008.12,137.2
2019-04-12 21:30,50.6304433333333,-96.980765,17.6,20.7,6,980.62,1.6,70,2.51,0.0,1008.16,137.2
2019-04-12 21:40,50.6304416666667,-96.980765,17.0,20.6,8,980.66,1.8,69,2.50,0.0,1008.17,137.2
2019-04-12 21:50,50.6304416666667,-96.980765,18.0,22.5,9,980.59,1.8,65,2.48,0.0,1008.10,137.2
2019-04-12 22:00,50.6304416666667,-96.980765,18.5,21.7,13,980.57,1.7,65,2.48,0.0,1008.08,0.0
2019-04-12 22:10,50.6304416666667,-96.980765,17.8,22.0,9,980.63,1.7,66,2.48,0.0,1008.14,0.0
2019-04-12 22:20,50.6304433333333,-96.9807633333333,18.5,21.5,11,980.70,1.8,65,2.48,0.0,1008.21,0.0
2019-04-12 22:30,50.630445,-96.980765,16.6,20.0,12,980.94,1.6,69,2.48,0.0,1008.45,0.0
2019-04-12 22:40,50.630445,-96.980765,15.4,17.7,12,981.03,1.6,71,2.48,0.0,1008.55,0.0
2019-04-12 22:50,50.630445,-96.980765,14.6,17.7,10,981.10,1.5,73,2.50,0.0,1008.62,0.0
2019-04-12 23:00,50.630445,-96.9807666666667,13.6,16.8,10,981.20,1.4,75,2.51,0.0,1008.72,39.5
2019-04-12 23:10,50.6304483333333,-96.9807866666667,13.2,16.1,3,981.28,2.0,67,2.51,0.0,1008.77,39.5
2019-04-12 23:20,50.63045,-96.9807816666667,12.8,15.2,2,981.34,2.0,68,2.51,0.0,1008.84,39.5
2019-04-12 23:30,50.63043,-96.98072,13.1,15.6,3,981.40,2.1,65,2.52,0.0,1008.88,39.5
2019-04-12 23:40,50.6304433333333,-96.9807733333333,11.9,14.4,5,981.52,1.7,68,2.52,0.0,1009.03,39.5
